Terug naar catalogus

STARLINK-35789

ActiefCommunicatieVLEO
NORAD 67113·PAYLOAD·🇺🇸 United States

Gelanceerd Dec 15, 2025 vanaf Cape Canaveral Space Force Station

Loading…

Volgende Passages (komende 24 uur)

TLE

VersSource: CelesTrak SupGP

Epoch: Sep 15, 2026, 04:05 UTC

1 67113C 25299M   26258.17062500  .00021935  00000+0  79447-3 0  2580
2 67113  43.0030 179.0849 0001360 271.4012  59.4438 15.27568316    13

Volg STARLINK-35789 in realtime met AllMySat

Download on the App Store